Regional Weather Roundup
Issued by NWS

Home | Current Version | Previous Version | Text Only | Print | Product List | Glossary On
Versions: 1 2 3 4 5 6 7 8 9 10 11 12 13 14 15 16 17 18 19 20 21 22 23 24 25 26 27 28 29 30 31 32 33 34 35 36 37 38 39 40 41 42 43 44 45 46 47 48 49 50
000
ASUS43 KMKX 260613
RWRWI

WISCONSIN REGIONAL WEATHER ROUNDUP
NATIONAL WEATHER SERVICE MILWAUKEE/SULLIVAN WI
100 AM CDT TUE MAY 26 2015

NOTE: "FAIR" INDICATES FEW OR NO CLOUDS BELOW 12,000 FEET WITH NO
SIGNIFICANT WEATHER AND/OR OBSTRUCTIONS TO VISIBILITY.

WIZ001-002-006>008-014>016-023>028-260700-
NORTHWEST WISCONSIN

CITY           SKY/WX    TMP DP  RH WIND       PRES   REMARKS
SUPERIOR ARPT  CLOUDY    46  46 100 N3        29.81R FOG
ASHLAND        CLOUDY    50  50 100 CALM      29.80R FOG
6HR MIN TEMP:  49; 6HR MAX TEMP:  54;

HAYWARD        PTCLDY    55  53  93 CALM      29.78R
6HR MIN TEMP:  54; 6HR MAX TEMP:  66;

SIREN          CLEAR     56  55  95 CALM      29.78R
CUMBERLAND     PTCLDY    55  55 100 CALM      29.79R
RICE LAKE      PTCLDY    59  57  93 S3        29.79S
CHETEK         MOCLDY    60  60  99 SE5       29.78F
LADYSMITH      PTCLDY    63  61  94 S3        29.81S
EAU CLAIRE     FOG       57  55  94 CALM      29.78S VSB 3/4
MENOMONIE      PTCLDY    60  59  97 CALM      29.78F
NEW RICHMOND   PTCLDY    61  61 100 CALM      29.79R
OSCEOLA        PTCLDY    56  56 100 SW6       29.81R
$$

WIZ003>005-009-010-017-018-260700-
NORTH CENTRAL WISCONSIN

CITY           SKY/WX    TMP DP  RH WIND       PRES   REMARKS
MANITOWISH WTR MOCLDY    58  58 100 SW6       29.80R
ARBOR VITAE    MOCLDY    62  60  93 SW3       29.81R
WOODRUFF       MOCLDY    62  60  93 SW3       29.81R
RHINELANDER    MOCLDY    61  59  93 SW5       29.82S
6HR MIN TEMP:  60; 6HR MAX TEMP:  69; 6HR PCP:  0.03;

EAGLE RIVER    CLOUDY    60  59  98 S3        29.81R
LAND O LAKES   PTCLDY    60  58  94 SW5       29.81R
PHILLIPS       CLOUDY    61  60  97 SW3       29.80S
TOMAHAWK       MOCLDY    59  58  96 CALM      29.83R
MEDFORD        PTCLDY    58  57  99 S6        29.82F
MERRILL        MOCLDY    58  58 100 CALM      29.83S
$$

WIZ029-030-035-036-043>047-260700-
CENTRAL WISCONSIN

CITY           SKY/WX    TMP DP  RH WIND       PRES   REMARKS
WAUSAU         CLEAR     61  60  97 S6        29.82S
6HR MIN TEMP:  58; 6HR MAX TEMP:  72;

MOSINEE        MOCLDY    59  59 100 S7        29.84F
MARSHFIELD     PTCLDY    62  58  86 S7        29.82F
6HR MIN TEMP:  60; 6HR MAX TEMP:  69;

STEVENS POINT  MOCLDY    61  59  94 S5        29.84S
WAUPACA        MOCLDY    65  64  97 S5        29.85S
WAUTOMA        NOT AVBL
WISC RAPIDS    CLEAR     64  60  87 S5        29.84S
6HR MIN TEMP:  60; 6HR MAX TEMP:  66; 6HR PCP: TRACE;

CAMP DOUGLAS   NOT AVBL
$$

WIZ011>013-019>022-031-037>040-048>050-260700-
NORTHEAST WISCONSIN

CITY           SKY/WX    TMP DP  RH WIND       PRES   REMARKS
ANTIGO         PTCLDY    58  58  98 SW5       29.84S
SHAWANO        PTCLDY    63  61  93 CALM      29.85R
OCONTO         CLOUDY    62  62 100 CALM      29.84R
STURGEON BAY   PTCLDY    64  59  82 S9        29.87S
6HR MIN TEMP:  63; 6HR MAX TEMP:  73;

GREEN BAY      MOCLDY    68  61  78 SW9       29.85S
6HR MIN TEMP:  63; 6HR MAX TEMP:  75; 6HR PCP: TRACE;

MANITOWOC      NOT AVBL
APPLETON       PTCLDY    68  59  73 S15       29.86S
CLINTONVILLE   PTCLDY    59  59 100 S5        29.84S
OSHKOSH        PTCLDY    66  59  78 S9        29.86S
6HR MIN TEMP:  66; 6HR MAX TEMP:  76;

$$

WIZ032>034-041-042-053>061-260700-
SOUTHWEST WISCONSIN

CITY           SKY/WX    TMP DP  RH WIND       PRES   REMARKS
LA CROSSE      CLOUDY    69  59  70 S10       29.82R
6HR MIN TEMP:  66; 6HR MAX TEMP:  74;

SPARTA         LGT RAIN  68  60  75 SW7       29.83S
VIROQUA        CLOUDY    64  64 100 CALM      29.86F
BOSCOBEL       PTCLDY    67  62  84 W3        29.86R
6HR MIN TEMP:  67; 6HR MAX TEMP:  79;

PRAIRIE DU CHI PTCLDY    69  62  76 SE3       29.84R
PLATTEVILLE    CLEAR     65  62  88 SE7       29.88S
$$

WIZ056-057-062-063-064-067-068-260700-
SOUTH CENTRAL WISCONSIN

CITY           SKY/WX    TMP DP  RH WIND       PRES   REMARKS
REEDSBURG      CLEAR     67  62  82 S10       29.85F
BARABOO/DELLS  CLEAR     67  59  75 SW8       29.86S
LONE ROCK      NOT AVBL
MINERAL POINT  CLEAR     66  61  82 S7        29.88S
MADISON        CLEAR     67  59  75 S5        29.87F
6HR MIN TEMP:  67; 6HR MAX TEMP:  76;

MIDDLETON      CLEAR     67  59  74 S6        29.88S
WATERTOWN      CLEAR     66  63  90 S5        29.89S
MONROE         CLEAR     64  61  88 S9        29.90R
JANESVILLE     CLEAR     66  59  77 S5        29.90S
$$

WIZ051-052-058>065-066-070>072-260700-
SOUTHEAST WISCONSIN

CITY           SKY/WX    TMP DP  RH WIND       PRES   REMARKS
MILWAUKEE      PTCLDY    67  59  75 SW7       29.90F
6HR MIN TEMP:  67; 6HR MAX TEMP:  77;

WAUKESHA       PTCLDY    64  59  82 S5        29.92F
MILWAUKEE/TIMM PTCLDY    68  57  68 S7        29.91S
RACINE         PTCLDY    70  59  68 S12       29.92F
6HR MIN TEMP:  70; 6HR MAX TEMP:  77;

BURLINGTON     PTCLDY    61  59  91 CALM      29.92S
KENOSHA        PTCLDY    69  60  73 S8        29.92F
6HR MIN TEMP:  68; 6HR MAX TEMP:  77;

FOND DU LAC    PTCLDY    68  59  73 S10       29.87F
6HR MIN TEMP:  68; 6HR MAX TEMP:  76;

SHEBOYGAN      PTCLDY    65  60  84 S9        29.88F
6HR MIN TEMP:  65; 6HR MAX TEMP:  76;

WEST BEND      PTCLDY    66  59  77 S5        29.89F
JUNEAU         CLEAR     67  61  80 S9        29.90S
$$

LSZ147-162-260700-
LAKE SUPERIOR

STATION/POSITION TIME  TEMP    WIND        PRES    WAVE
                       AIR SEA DIR/SP/G            HT/PER
                 (UTC) (F)     (DEG/KT/KT) (MB)    (FT/S)
W MID LAKE BUOY  0450   38 36  300/  8/  8 1085.0S   2/ 5
DEVILS ISLAND    0500   44     340/  6/  7   N/A
PORT WING        0400   44     190/  1/  3 1088.0
SAXON HARBOR     0540   49        CALM       N/A
$$

LMZ867-665-643>646-260700-
LAKE MICHIGAN

STATION/POSITION TIME  TEMP    WIND        PRES    WAVE
                       AIR SEA DIR/SP/G            HT/PER
                 (UTC) (F)     (DEG/KT/KT) (MB)    (FT/S)
CHAMBERS ISLAND  0500   62     180/  6/ 11   N/A
N MID LAKE BUOY  0450   44 37  210/ 14/ 16   N/A     3/ 5
NORTHPORT PIER   0500   63     160/  3/  6   N/A
SISTER BAY       0517   68     230/ 11/ 14   N/A
KEWAUNEE LAKESHO 0500   55     200/  5/  7   N/A
SHEBOYGAN LAKESH 0500   68     190/ 11/ 11   N/A
ATWATER BUOY     0500   56 47  180/  8/ 10   N/A
MILWAUKEE LAKESH 0500   70     210/ 10/ 12   N/A
S MID LAKE BUOY  0450   45 38  170/ 10/ 14   N/A     1
KENOSHA   LAKESH 0500   73     210/ 10/ 15   N/A
$$

TC  - TEMPERATURE IN CELSIUS
VSB - VISIBILITY IN STATUTE MILES
WCI - WIND CHILL INDEX
HX  - HEAT INDEX




USA.gov is the U.S. government's official web portal to all federal, state and local government web resources and services.